Location: Wolf Lake
(46.8518°N, 80.6381°W)
Time: 11:08:50
(UTC-04:00)

ISS - Pass Details

Date: 18 March 2026
Orbit: 416 x 425 km, 51.6° (Epoch: 19 April)

Event Time Altitude Azimuth Distance (km) Brightness Sun altitude
Rises 21:48:44 0° 288° (WNW) 2,387 1.5 -23.3°
Reaches altitude 10° 21:50:57 10° 297° (WNW) 1,519 0.2 -23.6°
Enters shadow 21:53:29 33° 339° (NNW) 736 -2.2 -24.0°
